Hourly Weather Roundup
Issued by NWS Central Illinois

Home | Current Version | Previous Version | Text Only | Print | Product List | Glossary On
Versions: 1 2 3 4 5 6 7 8 9 10 11 12 13 14 15 16 17 18 19 20 21 22 23 24 25 26 27 28 29 30 31 32 33 34 35 36 37 38 39 40 41 42 43 44 45 46 47 48 49 50
803
NZUS43 KILX 081410
HWRILX

AREA WEATHER ROUNDUP
NATIONAL WEATHER SERVICE, LINCOLN IL
800 AM CST MON FEB 08 2016


CITY           SKY/WX    TMP DP  RH WIND       PRES   REMARKS
BLOOMINGTON    CLOUDY    25  20  81 W18G31    29.72R WCI  12
CHAMPAIGN      FLURRIES  32  28  85 NW14      29.69R WCI  22
DANVILLE       RAIN      32  31  95 W7        29.65S WCI  26
DECATUR        FLURRIES  29  24  82 NW15G28   29.73R WCI  18
EFFINGHAM      LGT SNOW  33  33 100 W15G21    29.74R VSB 3/4 WCI  23
FLORA          CLOUDY    37  31  80 W22       29.74S WCI  26
GALESBURG      CLOUDY    21  14  76 W22       29.76S WCI   4
JACKSONVILLE   MIX PCPN  27  22  84 NW17      29.80R WCI  14
LACON          LGT SNOW  23  19  83 W9G18     29.73S WCI  13
LAWRENCEVILLE  CLOUDY    34  33  96 W7        29.73F WCI  28
LITCHFIELD     LGT SNOW  29  27  90 NW15G24   29.77R VSB 1   WCI  18
$$


CITY           SKY/WX    TMP DP  RH WIND       PRES   REMARKS
LINCOLN        CLOUDY    26  21  79 NW13G20   29.76R WCI  15
MACOMB         CLOUDY    22  16  79 NW20G26   29.81S WCI   7
MATTOON        LGT SNOW  33  30  88 W13G18    29.69S FOG     WCI  24
MT CARMEL AP   CLOUDY    36  32  87 W9        29.73F WCI  29
OLNEY-NOBLE AP CLOUDY    34  32  93 W7        29.74S WCI  28
PARIS          LGT RAIN  32  32  99 W6        29.70R WCI  27
PEORIA         CLOUDY    22  15  75 NW10G18   29.76S WCI  11
PONTIAC        CLOUDY    28  23  81 W16       29.71R WCI  16
RANTOUL        LGT RAIN  32  30  92 NW10      29.69R WCI  24
ROBINSON       CLOUDY    34  32  94 W9        29.73S WCI  26
SPRINGFIELD    LGT SNOW  26  22  84 NW16      29.78R VSB 3/4 WCI  14
TAYLORVILLE    FLURRIES  28  23  80 NW18G33   29.76R WCI  16
$$

...REGIONAL REPORTS...


CITY           SKY/WX    TMP DP  RH WIND       PRES   REMARKS
CHICAGO O`HARE FLURRIES  30  23  75 W17       29.63R WCI  18
KANKAKEE       MIX PCPN  31  25  78 W12G18    29.68R WCI  22
MOLINE         LGT SNOW  20  13  74 W13       29.76R WCI   7
MOUNT STERLING LGT SNOW  22  19  89 NW14      29.80S WCI   9
MOUNT VERNON   CLOUDY    36  21  55 W7        29.77R WCI  30
PITTSFIELD     LGT SNOW  25  22  89 W17G28    29.83R WCI  11
QUINCY         CLOUDY    22  15  75 NW18      29.83R WCI   7
ROCKFORD       CLOUDY    25  19  78 W14       29.68R WCI  13
$$


CITY           SKY/WX    TMP DP  RH WIND       PRES   REMARKS
BURLINGTON     LGT SNOW  20  14  77 NW15G26   29.79S WCI   6
CEDAR RAPIDS   LGT SNOW  16  12  84 NW24      29.78S FOG     WCI  -2
DES MOINES     LGT SNOW  18  10  71 NW26G36   29.91S WCI  -1
KIRKSVILLE     FLURRIES  21  11  65 NW21G35   29.88R WCI   5
OTTUMWA        FLURRIES  16  10  77 NW30G40   29.87R WCI  -4
ST LOUIS       FLURRIES  31  18  58 NW18G29   29.82R WCI  19
$$


CITY           SKY/WX    TMP DP  RH WIND       PRES   REMARKS
TERRE HAUTE    CLOUDY    33  31  92 W6        29.70S WCI  28
EVANSVILLE     CLOUDY    36  32  85 W7        29.77R WCI  30
INDIANAPOLIS   NOT AVBL
LAFAYETTE      CLOUDY    30  28  92 W5        29.67S WCI  25
MADISON        FLURRIES  22  17  81 NW8       29.65R WCI  12
MILWAUKEE      LGT SNOW  30  28  92 W7        29.61R VSB 3/4 WCI  23
$$






USA.gov is the U.S. government's official web portal to all federal, state and local government web resources and services.